Location: Kapla
(46.2483°N, 15.0094°E)
Time: 18:39:28
(UTC+00:00)

Cosmos 2366 rocket - Pass Details

Date: 03 March 2021
Orbit: 954 x 998 km, 82.9° (Epoch: 14 April)

Event Time Altitude Azimuth Distance (km) Brightness Sun altitude
Rises 18:20:41 0° 169° (S) 3,679 6.8 -16.6°
Reaches altitude 10° 18:23:14 10° 165° (SSE) 2,740 6.1 -17.0°
Maximum altitude 18:29:17 51° 91° (E) 1,232 4.1 -18.1°
Drops below altitude 10° 18:35:24 10° 18° (NNE) 2,775 6.3 -19.1°
Sets 18:38:00 0° 13° (NNE) 3,730 7.0 -19.5°
